Flag for Tunisia Weather past 2 weeks in Tunis, Tunisia

Now
68 °F

Scattered clouds.


Feels Like: 68 °F
Forecast: 56 / 75 °F
Wind: 21 mph from West

Location: Tunis-Carthage

Current Time: May 22, 2015 at 6:09:37 PM

Latest Report: May 22, 2015 at 5:30 PM


Visibility: N/A

Pressure: 30.04 "Hg

Humidity: 46%

Dew point: 46 °F

Location of TunisLocation

Historic Weather in Tunis — Graph

°F

Tunis temperature yesterday

Maximum temperature yesterday: 72 °F (at 1:30 PM)
Minimum temperature yesterday: 59 °F (at 7:00 AM)
Average temperature yesterday: 64 °F

Past Weeks' High & Low Weather Summary

 TemperatureHumidityPressure
High102 °F (May 15, 1:30 PM)100% (May 13, 3:30 AM)30.27 "Hg (May 13, 3:30 AM)
Low55 °F (May 13, 3:30 AM)11% (May 14, 4:00 PM)29.74 "Hg (May 15, 1:30 PM)
Average71 °F56%30.02 "Hg
* Reported May 7 5:00 PM — May 22 5:00 PM, Tunis, Weather by CustomWeather, © 2015

Note: Actual official high and low records may vary slightly from our data, if they occured in-between our weather recording intervals... More about our weather records

Advertising

Tunis weather history for previous 24 hours

 ConditionsComfort  
Time TempWeatherWind HumidityBarometerVisibility
5:00 PM
Fri, May 22
68 °FScattered clouds.21 mph46%30.04 "HgN/A
4:30 PM70 °FScattered clouds.17 mph43%30.04 "HgN/A
4:00 PM68 °FScattered clouds.20 mph46%30.04 "HgN/A
3:30 PM68 °FScattered clouds.22 mph46%30.04 "HgN/A
3:00 PM72 °FScattered clouds.21 mph41%30.01 "HgN/A
2:30 PM70 °FScattered clouds.20 mph40%30.04 "HgN/A
2:00 PM70 °FScattered clouds.20 mph40%30.04 "HgN/A
1:30 PM70 °FScattered clouds.18 mph40%30.04 "HgN/A
1:00 PM72 °FScattered clouds.22 mph36%30.04 "HgN/A
12:30 PM72 °FScattered clouds.21 mph36%30.01 "HgN/A
12:00 PM70 °FScattered clouds.23 mph38%30.04 "HgN/A
11:30 AM72 °FScattered clouds.23 mph36%30.04 "HgN/A
11:00 AM70 °FScattered clouds.24 mph38%30.04 "HgN/A
10:30 AM70 °FScattered clouds.24 mph38%30.04 "HgN/A
10:00 AM70 °FScattered clouds.21 mph38%30.04 "HgN/A
9:30 AM68 °FScattered clouds.23 mph40%30.04 "HgN/A
9:00 AM68 °FScattered clouds.22 mph40%30.04 "HgN/A
8:30 AM66 °FScattered clouds.22 mph43%30.04 "HgN/A
8:00 AM66 °FScattered clouds.20 mph46%30.04 "HgN/A
7:46 AM66 °FScattered clouds.20 mph46%30.04 "HgN/A
7:30 AM63 °FScattered clouds.7 mph56%30.04 "HgN/A
7:00 AM61 °FScattered clouds.10 mph59%30.04 "HgN/A
6:30 AM59 °FScattered clouds.9 mph63%30.04 "HgN/A
6:00 AM59 °FScattered clouds.7 mph59%30.04 "HgN/A
5:30 AM57 °FScattered clouds.8 mph63%30.04 "HgN/A
5:00 AM59 °FPassing clouds.9 mph59%30.04 "HgN/A
4:30 AM59 °FPassing clouds.12 mph55%30.04 "HgN/A
4:00 AM59 °FPassing clouds.14 mph55%30.07 "HgN/A
3:30 AM59 °FPassing clouds.15 mph55%30.04 "HgN/A
3:00 AM59 °FPassing clouds.12 mph55%30.07 "HgN/A
2:30 AM59 °FPassing clouds.10 mph55%30.09 "HgN/A
2:00 AM59 °FPassing clouds.12 mph55%30.09 "HgN/A
1:30 AM59 °FPassing clouds.12 mph55%30.09 "HgN/A
1:00 AM59 °FPassing clouds.13 mph55%30.09 "HgN/A
12:30 AM59 °FPassing clouds.8 mph59%30.09 "HgN/A
12:00 AM59 °FPassing clouds.6 mph59%30.12 "HgN/A
11:30 PM
Thu, May 21
59 °FPassing clouds.6 mph63%30.12 "HgN/A
11:00 PM61 °FPassing clouds.13 mph59%30.12 "HgN/A
9:30 PM61 °FPassing clouds.18 mph63%30.09 "HgN/A
9:00 PM61 °FPassing clouds.16 mph63%30.09 "HgN/A
8:30 PM63 °FPassing clouds.14 mph59%30.09 "HgN/A
8:00 PM63 °FPassing clouds.17 mph59%30.07 "HgN/A
7:30 PM63 °FPassing clouds.17 mph56%30.07 "HgN/A
7:00 PM63 °FScattered clouds.21 mph59%30.07 "HgN/A
6:30 PM64 °FScattered clouds.20 mph56%30.07 "HgN/A
6:00 PM64 °FScattered clouds.17 mph56%30.07 "HgN/A
Weather by CustomWeather, © 2015

See weather overviewHow to use our weather pages